Location: Unspecified
(0.0000°N, 0.0000°E)
Time: 12:19:07
(UTC+01:00)

Cosmos 1295 Rocket - Visible Passes

Search period start: 27 February 2017 00:00
Search period end: 09 March 2017 00:00
Orbit: 945 x 993 km, 82.9° (Epoch: 25 February)

Date Brightness Start Highest point End Pass type
(mag) Time Alt. Az. Time Alt. Az. Time Alt. Az.
27 Feb 4.5 21:02:19 10° S 21:08:26 75° W 21:12:34 22° N visible
28 Feb 5.7 19:43:01 10° SE 19:46:53 17° E 19:50:46 10° NE visible
28 Feb 5.8 21:26:17 10° SSW 21:31:48 35° W 21:37:21 10° NNW visible
01 Mar 4.9 20:04:39 10° SSE 20:10:15 37° E 20:15:52 10° NNE visible
01 Mar 6.9 21:51:29 10° SW 21:55:10 16° W 21:58:53 10° NW visible
02 Mar 4.3 20:27:27 10° S 20:33:36 79° E 20:39:48 10° N visible
03 Mar 5.3 20:51:03 10° SSW 20:56:58 50° W 21:02:57 10° NNW visible
04 Mar 5.4 19:30:23 10° SSE 19:35:25 26° E 19:40:28 10° NE visible
04 Mar 6.6 21:15:33 10° SW 21:20:21 24° W 21:25:10 10° NW visible
05 Mar 4.5 19:52:45 10° S 19:58:47 56° E 20:04:51 10° NNE visible
05 Mar 7.5 21:43:09 10° W 21:43:43 10° W 21:44:18 10° W visible
06 Mar 4.7 20:15:59 10° S 20:22:09 71° W 20:28:20 10° N visible
07 Mar 6.1 20:40:01 10° SSW 20:45:30 34° W 20:51:03 10° NNW visible
08 Mar 7.3 21:05:21 10° WSW 21:08:53 16° W 21:12:27 10° NW visible
